N7LK Weather Reports


time (UTC)temp
F
wind
direction
speed
knots
gust
knots
rain 1hr
in
rain 24hr
in
rain mn
in
humidity
%
barometer
mb
20260507165341 85 277 1.7 7.0 0.00 0.00 0.00 15 1011.6
20260507164333 84 240 0.0 2.6 0.00 0.00 0.00 17 1011.6
20260507163400 83 209 0.0 2.6 0.00 0.00 0.00 19 1011.6
20260507162344 83 243 0.0 4.3 0.00 0.00 0.00 20 1011.8
20260507161331 83 211 2.6 4.3 0.00 0.00 0.00 20 1011.8
20260507160338 82 134 1.7 3.5 0.00 0.00 0.00 20 1011.9
20260507155330 81 203 1.7 2.6 0.00 0.00 0.00 22 1012.0
20260507154355 80 198 0.0 3.5 0.00 0.00 0.00 23 1012.0
20260507153341 79 140 0.0 0.0 0.00 0.00 0.00 23 1012.0
20260507152327 79 236 0.0 0.0 0.00 0.00 0.00 24 1012.0
20260507151337 78 138 0.0 0.0 0.00 0.00 0.00 24 1012.1
20260507150343 77 146 0.0 0.0 0.00 0.00 0.00 25 1012.0
20260507145329 76 184 0.0 0.0 0.00 0.00 0.00 25 1012.1
20260507144335 75 179 0.0 0.0 0.00 0.00 0.00 27 1012.1
20260507143327 73 152 0.0 0.0 0.00 0.00 0.00 30 1012.1
20260507142333 71 153 0.0 0.0 0.00 0.00 0.00 31 1012.1
20260507141341 69 173 0.0 0.0 0.00 0.00 0.00 37 1012.0
20260507140329 68 163 0.0 0.0 0.00 0.00 0.00 38 1012.0
20260507135401 67 161 0.0 0.0 0.00 0.00 0.00 41 1011.8
20260507134327 66 161 0.0 0.0 0.00 0.00 0.00 43 1011.8
20260507133335 64 162 0.0 0.0 0.00 0.00 0.00 44 1011.8
20260507132342 62 168 0.0 0.0 0.00 0.00 0.00 48 1011.8
20260507131335 62 167 0.0 0.0 0.00 0.00 0.00 47 1011.7
20260507130342 62 165 0.0 0.0 0.00 0.00 0.00 46 1011.6
20260507125329 62 165 0.0 0.0 0.00 0.00 0.00 44 1011.5
20260507124338 62 165 0.0 0.0 0.00 0.00 0.00 44 1011.6
20260507123330 62 165 0.0 0.0 0.00 0.00 0.00 42 1011.4
20260507122338 62 179 0.0 0.0 0.00 0.00 0.00 46 1011.4
20260507121326 62 292 0.0 0.0 0.00 0.00 0.00 45 1011.3
20260507120334 62 292 0.0 0.0 0.00 0.00 0.00 45 1011.2
20260507115345 63 292 0.0 0.0 0.00 0.00 0.00 42 1011.3
20260507114332 63 292 0.0 0.0 0.00 0.00 0.00 44 1011.4
20260507113340 63 292 0.0 0.0 0.00 0.00 0.00 44 1011.3
20260507112328 63 292 0.0 0.0 0.00 0.00 0.00 43 1011.3
20260507111339 64 292 0.0 0.0 0.00 0.00 0.00 42 1011.4
20260507110327 64 292 0.0 0.0 0.00 0.00 0.00 40 1011.4
20260507105335 64 292 0.0 0.0 0.00 0.00 0.00 41 1011.5
20260507104325 64 292 0.0 0.0 0.00 0.00 0.00 40 1011.6
20260507103334 65 292 0.0 0.0 0.00 0.00 0.00 39 1011.7
20260507102342 65 292 0.0 0.0 0.00 0.00 0.00 39 1011.9
20260507101330 65 292 0.0 0.0 0.00 0.00 0.00 37 1011.9
20260507100342 66 292 0.0 0.0 0.00 0.00 0.00 36 1011.9
20260507095351 66 292 0.0 0.0 0.00 0.00 0.00 37 1012.0
20260507094339 67 292 0.0 0.0 0.00 0.00 0.00 35 1012.1
20260507093326 67 292 0.0 0.0 0.00 0.00 0.00 34 1012.1
20260507092337 67 292 0.0 0.0 0.00 0.00 0.00 35 1012.0
20260507091342 68 292 0.0 0.0 0.00 0.00 0.00 33 1012.1
20260507090331 68 292 0.0 0.0 0.00 0.00 0.00 31 1012.1
20260507085339 68 290 0.0 0.0 0.00 0.00 0.00 31 1012.1
20260507084330 68 290 0.0 0.0 0.00 0.00 0.00 31 1012.1
20260507083338 69 340 0.0 0.0 0.00 0.00 0.00 31 1012.1
20260507082327 69 316 0.0 0.0 0.00 0.00 0.00 32 1012.1
20260507081355 69 309 0.0 0.0 0.00 0.00 0.00 31 1012.2
20260507080325 69 309 0.0 0.0 0.00 0.00 0.00 32 1012.2
20260507075333 69 308 0.0 0.0 0.00 0.00 0.00 31 1012.2
20260507074342 69 304 0.0 0.0 0.00 0.00 0.00 32 1012.2
20260507073330 69 306 0.0 0.0 0.00 0.00 0.00 33 1012.3
20260507072343 69 306 0.0 0.0 0.00 0.00 0.00 33 1012.2
20260507071331 69 306 0.0 0.0 0.00 0.00 0.00 33 1012.2
20260507070339 70 306 0.0 0.0 0.00 0.00 0.00 32 1012.2
20260507065347 70 306 0.0 0.0 0.00 0.00 0.00 32 1012.2
20260507064339 70 306 0.0 0.0 0.00 0.00 0.00 31 1012.2
20260507063328 71 306 0.0 0.0 0.00 0.00 0.00 31 1012.2
20260507062335 72 306 0.0 0.0 0.00 0.00 0.00 30 1012.3
20260507061344 72 306 0.0 0.0 0.00 0.00 0.00 29 1012.3
20260507060336 73 306 0.0 0.0 0.00 0.00 0.00 29 1012.2
20260507055343 73 306 0.0 0.0 0.00 0.00 0.00 29 1012.2
20260507054331 74 306 0.0 0.0 0.00 0.00 0.00 28 1012.2
20260507053400 74 306 0.0 0.0 0.00 0.00 0.00 28 1012.2
20260507052331 75 300 0.0 0.0 0.00 0.00 0.00 27 1012.1
20260507051337 75 288 0.0 0.0 0.00 0.00 0.00 26 1012.1
20260507050345 76 288 0.0 0.0 0.00 0.00 0.00 26 1012.1
20260507045353 76 288 0.0 0.0 0.00 0.00 0.00 25 1012.0
20260507044339 76 288 0.0 0.0 0.00 0.00 0.00 24 1012.0
20260507043331 76 288 0.0 0.0 0.00 0.00 0.00 24 1012.0
20260507042338 76 267 0.0 0.0 0.00 0.00 0.00 24 1011.9
20260507041347 77 265 0.0 0.0 0.00 0.00 0.00 23 1011.7
20260507040334 77 274 0.0 0.0 0.00 0.00 0.00 24 1011.6
20260507035344 78 276 0.0 0.0 0.00 0.00 0.00 24 1011.4
20260507034333 78 276 0.0 0.0 0.00 0.00 0.00 22 1011.3
20260507033342 79 286 0.0 0.0 0.00 0.00 0.00 23 1011.2
20260507032329 79 286 0.0 0.0 0.00 0.00 0.00 21 1011.1
20260507031339 79 290 0.0 1.7 0.00 0.00 0.00 21 1010.9
20260507030346 80 280 0.0 3.5 0.00 0.00 0.00 21 1010.8
20260507025332 80 269 0.0 3.5 0.00 0.00 0.00 21 1010.7
20260507024340 80 250 0.9 3.5 0.00 0.00 0.00 21 1010.7
20260507023331 81 227 0.0 2.6 0.00 0.00 0.00 21 1010.5
20260507022340 81 245 0.0 4.3 0.00 0.00 0.00 21 1010.4
20260507021327 82 259 0.0 3.5 0.00 0.00 0.00 20 1010.3
20260507020336 82 268 1.7 5.2 0.00 0.00 0.00 20 1010.3
20260507015329 83 224 0.9 6.1 0.00 0.00 0.00 20 1010.3
20260507014336 83 237 1.7 5.2 0.00 0.00 0.00 20 1010.2
20260507013344 84 248 0.0 8.7 0.00 0.00 0.00 20 1010.1
20260507012332 84 270 1.7 7.8 0.00 0.00 0.00 19 1010.1
20260507011345 85 255 0.0 6.1 0.00 0.00 0.00 19 1010.1
20260507010332 86 211 2.6 6.1 0.00 0.00 0.00 19 1010.1
20260507005339 86 291 1.7 6.1 0.00 0.00 0.00 18 1010.2
20260507004328 85 284 0.9 6.1 0.00 0.00 0.00 19 1010.1
20260507003340 85 275 1.7 6.1 0.00 0.00 0.00 19 1010.1
20260507002328 86 273 4.3 7.0 0.00 0.00 0.00 18 1010.1
20260507001335 86 217 0.0 6.1 0.00 0.00 0.00 18 1010.1
20260507000405 86 257 0.0 7.8 0.00 0.00 0.00 18 1010.1
20260506235352 86 182 4.3 9.6 0.00 0.00 0.00 18 1010.0
20260506234339 86 276 1.7 6.1 0.00 0.00 0.00 18 1010.2
20260506233327 86 88 0.0 6.1 0.00 0.00 0.00 18 1010.2
20260506232353 86 310 1.7 6.1 0.00 0.00 0.00 18 1010.3
20260506231401 86 273 0.0 2.6 0.00 0.00 0.00 18 1010.4
20260506230331 86 144 0.0 6.1 0.00 0.00 0.00 18 1010.6
20260506225359 86 333 4.3 9.6 0.00 0.00 0.00 18 1010.7
20260506224327 86 360 0.0 4.3 0.00 0.00 0.00 18 1010.7
20260506223334 86 256 0.0 4.3 0.00 0.00 0.00 18 1010.8
20260506222343 86 299 1.7 4.3 0.00 0.00 0.00 18 1011.0
20260506221330 85 260 2.6 8.7 0.00 0.00 0.00 19 1011.2
20260506220338 85 213 0.0 7.0 0.00 0.00 0.00 18 1011.2
20260506215345 85 202 0.9 7.0 0.00 0.00 0.00 18 1011.3
20260506214356 85 9 0.0 0.0 0.00 0.00 0.00 19 1011.5
20260506213343 84 218 0.0 0.0 0.00 0.00 0.00 19 1011.8
20260506212332 83 271 1.7 7.8 0.00 0.00 0.00 20 1012.1
20260506211341 83 15 3.5 7.8 0.00 0.00 0.00 19 1012.2
20260506210331 83 268 2.6 4.3 0.00 0.00 0.00 20 1012.4
20260506205340 83 154 5.2 8.7 0.00 0.00 0.00 20 1012.4
20260506204328 82 267 2.6 7.8 0.00 0.00 0.00 20 1012.6
20260506203336 82 263 3.5 6.1 0.00 0.00 0.00 21 1012.7
20260506202348 81 317 2.6 5.2 0.00 0.00 0.00 21 1012.8
20260506201334 82 196 2.6 6.1 0.00 0.00 0.00 21 1012.9
20260506200342 81 227 0.9 5.2 0.00 0.00 0.00 22 1012.9
20260506195330 81 161 4.3 9.6 0.00 0.00 0.00 21 1013.0
20260506194343 80 188 2.6 7.8 0.00 0.00 0.00 22 1013.2
20260506193332 80 79 2.6 7.0 0.00 0.00 0.00 22 1013.3
20260506192339 80 335 4.3 9.6 0.00 0.00 0.00 22 1013.4
20260506191327 80 348 0.9 7.8 0.00 0.00 0.00 23 1013.3
20260506190339 80 186 3.5 8.7 0.00 0.00 0.00 23 1013.5
20260506185406 80 277 1.7 5.2 0.00 0.00 0.00 23 1013.7
20260506184334 79 208 0.0 3.5 0.00 0.00 0.00 23 1013.8
20260506183342 79 293 0.9 7.8 0.00 0.00 0.00 23 1014.1
20260506182333 78 350 0.9 5.2 0.00 0.00 0.00 26 1014.1
20260506181401 77 248 0.9 7.0 0.00 0.00 0.00 25 1014.3
20260506180328 77 22 2.6 6.1 0.00 0.00 0.00 26 1014.3
20260506175336 77 235 0.9 6.1 0.00 0.00 0.00 26 1014.3
20260506174348 76 328 0.9 4.3 0.00 0.00 0.00 27 1014.4
20260506173335 75 327 2.6 5.2 0.00 0.00 0.00 28 1014.4
20260506172342 76 252 4.3 7.8 0.00 0.00 0.00 28 1014.4
20260506171330 75 307 0.0 2.6 0.00 0.00 0.00 28 1014.4
20260506170358 75 319 0.9 6.1 0.00 0.00 0.00 29 1014.4